Location: ??????
(41.3794°N, 22.5014°E)
Time: 21:13:56
(UTC+00:00)

ISS - Pass Details

Date: 30 November 2020
Orbit: 418 x 419 km, 51.6° (Epoch: 20 January)

Event Time Altitude Azimuth Distance (km) Brightness Sun altitude
Rises 15:28:02 0° 290° (WNW) 2,366 0.8 -5.3°
Reaches altitude 10° 15:30:48 10° 314° (NW) 1,502 -0.6 -5.7°
Maximum altitude 15:32:52 15° 352° (N) 1,221 -1.6 -6.1°
Drops below altitude 10° 15:34:58 10° 31° (NNE) 1,502 -1.4 -6.5°
Enters shadow 15:35:55 - 42° (NE) 1,765 -1.2 -6.6°
